Weather History for Kendall, FL

Change the Weather History Date:

Monday, November 18, 2013

  Actual Average Record
Temperature  
Mean Temperature 75 °F -  
Max Temperature 82 °F 81 °F 85 °F (1993)
Min Temperature 68 °F 62 °F 48 °F (2002)
Cooling Degree Days 10    
Growing Degree Days 25 (Base 50)    
Moisture  
Dew Point 70 °F    
Average Humidity 84    
Maximum Humidity 100    
Minimum Humidity 65    
Precipitation  
Precipitation 0.00 in - - ()
Sea Level Pressure  
Sea Level Pressure 29.98 in    
Wind  
Wind Speed 2 mph (ESE)    
Max Wind Speed 8 mph    
Max Gust Speed -    
Visibility 9 miles    
Events Rain    
Averages and records for this station are not official NWS values.
T = Trace of Precipitation, MM = Missing Value Source: NWS Daily Summary

Daily Weather History Graph

Daily Weather History Graph

Search for Another Location

Airport:

Trip Planner

Search our weather history database for the weather conditions in past years. The results will help you decide how hot, cold, wet, or windy it might be!

Date:

Astronomy

Nov. 18, 2013 Rise Set
Actual Time 6:41 AM EST 5:32 PM EST
Civil Twilight 6:17 AM EST 5:56 PM EST
Nautical Twilight 5:49 AM EST 6:24 PM EST
Astronomical Twilight 5:21 AM EST 6:51 PM EST
Moon 6:34 PM EST (11/18) 7:28 AM EST (11/18)
Length of Visible Light 11h 39m
Length of Day
10h 50m
Full, 99% of the Moon is Illuminated
Nov 18
Full
Nov 25
Last Quarter
Dec 2
New
Dec 9
First Quarter
Dec 17
Full

Hourly Weather History & Observations

Time (EST) Temp. Heat Index Dew Point Humidity Pressure Visibility Wind Dir Wind Speed Gust Speed Precip Events Conditions
12:53 AM 72.0 °F - 70.0 °F 93% 30.02 in 10.0 mi Calm Calm - N/A   Clear
1:53 AM 72.0 °F - 71.1 °F 97% 30.00 in 10.0 mi Calm Calm - 0.00 in Rain Light Rain
2:53 AM 70.0 °F - 69.1 °F 97% 30.00 in 3.0 mi Calm Calm - 0.00 in   Clear
3:20 AM 69.8 °F - 69.8 °F 100% 29.99 in 2.5 mi Calm Calm - N/A   Clear
3:29 AM 69.8 °F - 69.8 °F 100% 29.99 in 7.0 mi Calm Calm - N/A   Clear
3:53 AM 69.1 °F - 68.0 °F 96% 29.99 in 4.0 mi Calm Calm - N/A   Clear
4:14 AM 69.8 °F - 69.8 °F 100% 29.99 in 2.5 mi Calm Calm - N/A   Clear
4:21 AM 69.8 °F - 69.8 °F 100% 29.99 in 6.0 mi Calm Calm - N/A   Clear
4:53 AM 71.1 °F - 70.0 °F 96% 30.00 in 9.0 mi Calm Calm - N/A   Clear
5:53 AM 70.0 °F - 70.0 °F 100% 30.00 in 10.0 mi Calm Calm - N/A   Mostly Cloudy
6:53 AM 68.0 °F - 66.9 °F 96% 30.00 in 2.5 mi Calm Calm - 0.00 in   Clear
7:02 AM 69.8 °F - 68.0 °F 94% 30.00 in 10.0 mi Calm Calm - N/A   Partly Cloudy
7:53 AM 75.0 °F - 72.0 °F 90% 30.01 in 10.0 mi Calm Calm - N/A   Overcast
8:53 AM 80.1 °F 83.8 °F 72.0 °F 76% 30.02 in 10.0 mi NE 3.5 mph - N/A   Clear
9:53 AM 80.1 °F 83.2 °F 70.0 °F 71% 30.03 in 10.0 mi ESE 8.1 mph - N/A   Scattered Clouds
10:27 AM 82.4 °F 87.2 °F 71.6 °F 70% 30.02 in 10.0 mi SE 6.9 mph - N/A   Mostly Cloudy
10:51 AM 82.4 °F 87.2 °F 71.6 °F 70% 30.02 in 10.0 mi East 8.1 mph - N/A   Mostly Cloudy
10:53 AM 82.9 °F 87.5 °F 71.1 °F 67% 30.02 in 10.0 mi East 8.1 mph - N/A   Scattered Clouds
11:53 AM 82.9 °F 87.0 °F 70.0 °F 65% 30.00 in 10.0 mi ESE 5.8 mph - N/A   Scattered Clouds
12:53 PM 82.0 °F 85.9 °F 70.0 °F 67% 29.97 in 10.0 mi SE 8.1 mph - N/A   Mostly Cloudy
1:53 PM 82.0 °F 85.5 °F 69.1 °F 65% 29.95 in 10.0 mi ESE 5.8 mph - N/A   Overcast
2:53 PM 82.0 °F 85.5 °F 69.1 °F 65% 29.94 in 10.0 mi SE 5.8 mph - N/A   Scattered Clouds
3:53 PM 81.0 °F 84.1 °F 69.1 °F 67% 29.93 in 10.0 mi East 8.1 mph - N/A   Mostly Cloudy
4:53 PM 79.0 °F - 69.1 °F 72% 29.94 in 10.0 mi ESE 5.8 mph - N/A   Partly Cloudy
5:53 PM 77.0 °F - 70.0 °F 79% 29.94 in 10.0 mi SE 5.8 mph - N/A   Partly Cloudy
6:53 PM 75.0 °F - 70.0 °F 84% 29.96 in 10.0 mi ESE 4.6 mph - N/A   Clear
7:53 PM 75.0 °F - 71.1 °F 87% 29.97 in 10.0 mi ESE 3.5 mph - N/A   Mostly Cloudy
8:53 PM 77.0 °F - 71.1 °F 82% 29.97 in 10.0 mi Calm Calm - N/A   Overcast
9:53 PM 77.0 °F - 71.1 °F 82% 29.96 in 10.0 mi Calm Calm - N/A   Overcast
10:53 PM 73.9 °F - 71.1 °F 91% 29.96 in 10.0 mi WSW 3.5 mph - N/A   Overcast
11:53 PM 73.0 °F - 72.0 °F 96% 29.95 in 10.0 mi West 4.6 mph - N/A   Overcast